Content
SEND FEEDBACK

Daily
Averages
Monthly
Summary
United Kingdom

BARROW-IN-FURNESS, ENGLAND


Home > Europe > United Kingdom > England
Elevation: 49 feet     Latitude: 54 08N     Longitude: 003 15W

WEATHER
 
SELECT A DAY
Number of Records: 25,284;   Date Range: 6/19/04 - 7/11/14
 
SHARE

PRINT THIS DATA

[ ← Previous Day ]
WEATHER ALMANAC - JANUARY 11, 2014
[ Next Day → ]
[ °C ]   °F
Weather ElementAverageHighLow
Temperature40.8 °F44 °F (2:00 pm)36 °F (11:00 pm)
Dewpoint37.5 °F40 °F (1:00 am)35 °F (11:00 pm)
Humidity83.4 %94 % (4:00 am)71 % (2:00 pm)
Barometer30.02 in30.18 in (10:00 pm)29.81 in (1:00 am)
Wind Speed10.3 mph18.4 mph (9:00 am)
Weather ElementAverage
Visibility16.7 mi
Wind DirectionW (273.5 °)

Weather ElementTotal
Precipitation---
Heating Degree Days25 (Base 65)
Averaged from 23 records on January 11, 2014
WEATHER CONDITIONS BREAKOUT
WIND DIRECTION BREAKOUT
WEATHER BY HOUR - JANUARY 11, 2014
[ °C ]   °F
Local TimeTemperatureDewpointHumidityBarometerVisibilityWind DirectionWind SpeedGust SpeedPrecipitationEventsConditions
1:00 AM42.0 °F40.0 °F91 %29.81 in9.0 miNNW (330°)5.8 mphOvercast
2:00 AM42.0 °F40.0 °F89 %29.83 in12.0 miNW (320°)8.1 mphOvercast
3:00 AM39.0 °F38.0 °F93 %29.83 in13.0 miNNW (330°)5.8 mphPartly Cloudy
4:00 AM40.0 °F39.0 °F94 %29.86 in11.0 miWest (280°)9.2 mph
5:00 AM42.0 °F38.0 °F82 %29.88 in16.0 miWNW (290°)11.5 mphScattered Clouds
6:00 AM41.0 °F38.0 °F83 %29.90 in25.0 miWNW (300°)11.5 mphPartly Cloudy
7:00 AM42.0 °F38.0 °F79 %29.92 in19.0 miWNW (290°)10.4 mphRainLight Rain Showers
8:00 AM39.0 °F36.0 °F84 %29.96 in28.0 miNW (310°)17.3 mphRainLight Rain Showers
9:00 AM39.0 °F36.0 °F85 %29.99 in13.0 miNW (320°)18.4 mphRainLight Rain Showers
10:00 AM40.0 °F37.0 °F83 %30.01 in28.0 miWNW (300°)13.8 mphRainRain
11:00 AM42.0 °F38.0 °F79 %30.04 in17.0 miWNW (290°)17.3 mphScattered Clouds
12:00 PM43.0 °F37.0 °F73 %30.04 in22.0 miWNW (290°)18.4 mph
1:00 PM43.0 °F37.0 °F73 %30.07 in22.0 miWNW (290°)15.0 mphPartly Cloudy
2:00 PM44.0 °F38.0 °F71 %30.08 in19.0 miWest (270°)15.0 mphScattered Clouds
3:00 PM43.0 °F37.0 °F74 %30.10 in19.0 miWNW (300°)9.2 mph
4:00 PM42.0 °F37.0 °F77 %30.11 in22.0 miWest (280°)9.2 mph
5:00 PM42.0 °F38.0 °F79 %30.13 in19.0 miWest (260°)9.2 mphScattered Clouds
6:00 PM41.0 °F37.0 °F80 %30.14 in12.0 miWest (280°)8.1 mph
7:00 PM41.0 °F38.0 °F84 %30.14 in15.0 miWest (260°)9.2 mph
8:00 PM38.0 °F36.0 °F88 %30.16 in11.0 miSouth (170°)2.3 mph
9:00 PM38.0 °F37.0 °F93 %30.17 in14.0 miSW (220°)1.2 mph
10:00 PM39.0 °F37.0 °F92 %30.18 in12.0 miSouth (180°)4.6 mph
11:00 PM36.0 °F35.0 °F93 %30.17 in6.0 miSE (130°)5.8 mphMostly Cloudy
Hourly data recorded from EGNL, located miles away from Barrow-in-Furness, England







STORIES FROM OUR PARTNERS